Regional Weather Roundup
Issued by NWS Newport/Morehead, NC

Current Version | Previous Version | Graphics & Text | Print | Product List | Glossary On
Versions: 1 2 3 4 5 6 7 8 9 10 11 12 13 14 15 16 17 18 19 20 21 22 23 24 25 26 27 28 29 30 31 32 33 34 35 36 37 38 39 40 41 42 43 44 45 46 47 48 49 50
000 ASUS42 KMHX 280625 RWRMHX WEATHER ROUNDUP FOR EASTERN NORTH CAROLINA NATIONAL WEATHER SERVICE NEWPORT/MOREHEAD CITY NC 200 AM EDT FRI AUG 28 2015 NOTE: "FAIR" INDICATES FEW OR NO CLOUDS BELOW 12,000 FEET WITH NO SIGNIFICANT WEATHER AND/OR OBSTRUCTIONS TO VISIBILITY NCZ015>017-031-032-045>047-102-103-280700- NORTH COAST CITY SKY/WX TMP DP RH WIND PRES REMARKS EDENTON CLOUDY 67 63 87 CALM 30.11S ELIZABETH CITY CLOUDY 73 64 73 NE7 30.11F KITTY HAWK CLOUDY 75 62 63 NE8 30.09S MANTEO CLOUDY 74 62 65 NE13 30.10F $$ NCZ045>047-081-094-103-104-280700- CENTRAL COAST CITY SKY/WX TMP DP RH WIND PRES REMARKS FRISCO FAIR 73 68 84 NE7 30.08R SWANQUARTER NOT AVBL $$ NCZ095-097-098-100-101-280700- SOUTHERN COAST CITY SKY/WX TMP DP RH WIND PRES REMARKS BEAUFORT FAIR 71 69 93 NE8 30.08S CEDAR ISLAND NOT AVBL JACKSONVILLE MOCLDY 69 63 81 N6 30.08F PINEY ISLAND MOCLDY N/A N/A N/A NE16 30.08S WILMINGTON MOCLDY 70 65 84 NE8 30.07F $$ NCZ011>013-027>030-043-044-078>080-089-090>093-098-280700- COASTAL PLAIN CITY SKY/WX TMP DP RH WIND PRES REMARKS AHOSKIE FAIR 64 62 95 CALM 30.12F CLINTON FAIR 69 66 89 NE3 30.10F ELIZABETHTOWN FAIR 69 65 88 CALM 30.09F GOLDSBORO FAIR 67 65 93 CALM 30.10F GREENVILLE MOCLDY 64 64 100 CALM 30.12F HAVELOCK FAIR 72 65 78 NE8 30.10S KENANSVILLE N/A 67 65 92 CALM 30.11F KINSTON MOCLDY 67 64 91 CALM 30.12S NEW BERN CLOUDY 71 64 78 NE8 30.11S RICHLANDS MOCLDY 66 61 82 N5 30.09F ROCKY MOUNT FAIR 63 61 93 CALM 30.13S WASHINGTON FAIR 68 63 84 NE3 30.10F WHITEVILLE FAIR 69 64 85 N3 30.08F $$ AMZ130-135-150-152-154-156-158-170-250-252-270-ANZ085-086-088-633-658-670-280700- MARINE OBSERVATIONS STATION/POSITION TIME TEMP WIND PRES WAVE SWELL AIR SEA DIR/SP/G HT/PER HT/PER (UTC) (F) (DEG/KT/KT) (MB) (FT/S) (FT/S) CHESAPEAKE LIGHT 0600 76 30/ 9/ 10 1020.4 64 E VA BEACH 0550 77 79 30/ 12/ 17 1019.1 4/ 9 3/ 9 DUCK 0600 76 78 40/ 15/ 18 1018.5 2 E DUCK 0611 78 N/A 4/12 2/12 OREGON INLET 0600 75 77 20/ 13/ 18 1018.8 13E OREGON INLT 0600 79 N/A 5/ 5 2/11 HATTERAS CG 0600 76 80 40/ 10/ 15 1018.2 DIAMOND BUOY 0550 78 83 40/ 12/ 14 1018.3 4/ 8 3/ 8 CAPE LOOKOUT 0600 76 20/ 10/ 11 1017.8 BEAUFORT LAB 0600 72 80 30/ 6/ 7 1017.8 30 SE NEW RVR IN 0508 78 82 140/ 6/ 12 1018.2 30 SE NEW RVR IN 0525 82 N/A 3/ 6 27 SE WRIGHTSVLE 0600 75 82 50/ 14/ 16 N/A 5 SE WRIGHTSVLE 0508 78 82 60/ 17/ 23 1017.9 225 S CAPE HAT 0550 78 83 80/ 4/ 6 1016.4 3/ 9 3/ 9 41 SE CHARLESTON 0550 82 84 110/ 2/ 4 1016.5 2/ 9 2/ 9 $$

USA.gov is the U.S. government's official web portal to all federal, state and local government web resources and services.